Tiempo cada hora Abadia

Hoy, 23 Junio, Miércoles

Tiempo Temperatura Precipitaciones Viento Presión Humedad
00:00 +13°C° 0 mm 3 mps 723 mmHg 76%
01:00 +13°C° 0 mm 3 mps 723 mmHg 78%
02:00 +12°C° 0 mm 3 mps 723 mmHg 79%
03:00 +12°C° 0 mm 3 mps 722 mmHg 81%
04:00 +12°C° 0 mm 3 mps 722 mmHg 80%
05:00 +13°C° 0 mm 2 mps 723 mmHg 80%
06:00 +13°C° 0 mm 2 mps 723 mmHg 80%
07:00 +16°C° 0 mm 3 mps 723 mmHg 70%
08:00 +18°C° 0 mm 3 mps 723 mmHg 61%
09:00 +20°C° 0 mm 3 mps 723 mmHg 51%
10:00 +21°C° 0 mm 3 mps 723 mmHg 45%
11:00 +24°C° 0 mm 2 mps 723 mmHg 40%
12:00 +25°C° 0 mm 2 mps 723 mmHg 34%
13:00 +26°C° 0 mm 2 mps 723 mmHg 32%
14:00 +26°C° 0 mm 2 mps 723 mmHg 30%
15:00 +27°C° 0 mm 2 mps 723 mmHg 28%
16:00 +26°C° 0 mm 3 mps 723 mmHg 29%
17:00 +26°C° 0 mm 3 mps 723 mmHg 29%
18:00 +25°C° 0 mm 3 mps 723 mmHg 29%
19:00 +22°C° 0 mm 3 mps 723 mmHg 35%
20:00 +20°C° 0 mm 3 mps 723 mmHg 40%
21:00 +17°C° 0 mm 3 mps 724 mmHg 45%
22:00 +17°C° 0 mm 3 mps 724 mmHg 47%
23:00 +16°C° 0 mm 3 mps 724 mmHg 48%

Mañana, 24 Junio, Jueves

Tiempo Temperatura Precipitaciones Viento Presión Humedad
00:00 +15°C° 0 mm 2 mps 724 mmHg 49%
01:00 +15°C° 0 mm 2 mps 724 mmHg 52%
02:00 +15°C° 0 mm 2 mps 723 mmHg 55%
03:00 +14°C° 0 mm 2 mps 723 mmHg 57%
04:00 +14°C° 0 mm 2 mps 724 mmHg 58%
05:00 +15°C° 0 mm 2 mps 724 mmHg 58%
06:00 +15°C° 0 mm 2 mps 724 mmHg 58%
07:00 +18°C° 0 mm 2 mps 724 mmHg 50%
08:00 +20°C° 0 mm 2 mps 724 mmHg 43%
09:00 +24°C° 0 mm 2 mps 725 mmHg 36%
10:00 +26°C° 0 mm 2 mps 725 mmHg 32%
11:00 +27°C° 0 mm 2 mps 724 mmHg 29%
12:00 +29°C° 0 mm 2 mps 724 mmHg 26%
13:00 +30°C° 0 mm 2 mps 724 mmHg 25%
14:00 +30°C° 0 mm 2 mps 724 mmHg 23%
15:00 +31°C° 0 mm 2 mps 724 mmHg 22%
16:00 +30°C° 0 mm 2 mps 723 mmHg 22%
17:00 +30°C° 0 mm 1 mps 723 mmHg 23%
18:00 +30°C° 0 mm 1 mps 723 mmHg 23%
19:00 +27°C° 0 mm 1 mps 723 mmHg 28%
20:00 +25°C° 0 mm 2 mps 723 mmHg 33%
21:00 +21°C° 0 mm 2 mps 724 mmHg 38%
22:00 +21°C° 0 mm 2 mps 723 mmHg 40%
23:00 +20°C° 0 mm 2 mps 723 mmHg 43%

Pasado mañana, 25 Junio, Viernes

Tiempo Temperatura Precipitaciones Viento Presión Humedad
00:00 +19°C° 0 mm 2 mps 723 mmHg 45%
01:00 +19°C° 0 mm 2 mps 723 mmHg 46%
02:00 +19°C° 0 mm 2 mps 723 mmHg 48%
03:00 +18°C° 0 mm 2 mps 723 mmHg 49%
04:00 +19°C° 0 mm 2 mps 723 mmHg 49%
05:00 +19°C° 0 mm 2 mps 723 mmHg 49%
06:00 +20°C° 0 mm 1 mps 723 mmHg 49%
07:00 +23°C° 0 mm 1 mps 724 mmHg 43%
08:00 +26°C° 0 mm 2 mps 724 mmHg 37%
09:00 +29°C° 0 mm 2 mps 724 mmHg 31%
10:00 +30°C° 0 mm 2 mps 724 mmHg 29%
11:00 +32°C° 0 mm 2 mps 724 mmHg 28%
12:00 +34°C° 0 mm 3 mps 724 mmHg 26%
13:00 +35°C° 0 mm 2 mps 723 mmHg 25%
14:00 +35°C° 0 mm 2 mps 723 mmHg 24%
15:00 +36°C° 0 mm 2 mps 723 mmHg 23%
16:00 +35°C° 0 mm 2 mps 722 mmHg 23%
17:00 +34°C° 0 mm 1 mps 722 mmHg 24%
18:00 +34°C° 0 mm 1 mps 722 mmHg 24%
19:00 +31°C° 0 mm 1 mps 722 mmHg 29%
20:00 +29°C° 0 mm 2 mps 722 mmHg 34%
21:00 +26°C° 0 mm 2 mps 722 mmHg 38%
22:00 +25°C° 0 mm 2 mps 722 mmHg 40%
23:00 +25°C° 0 mm 2 mps 722 mmHg 41%

26 Junio, Sábado

Tiempo Temperatura Precipitaciones Viento Presión Humedad
00:00 +24°C° 0 mm 2 mps 722 mmHg 42%
01:00 +24°C° 0 mm 2 mps 722 mmHg 42%
02:00 +23°C° 0 mm 2 mps 722 mmHg 43%
03:00 +23°C° 0 mm 1 mps 722 mmHg 43%
04:00 +23°C° 0 mm 1 mps 722 mmHg 44%
05:00 +23°C° 0 mm 1 mps 722 mmHg 45%
06:00 +23°C° 0 mm 1 mps 722 mmHg 47%
07:00 +26°C° 0 mm 1 mps 722 mmHg 42%
08:00 +28°C° 0 mm 2 mps 723 mmHg 38%
09:00 +31°C° 0 mm 2 mps 723 mmHg 34%
10:00 +33°C° 0 mm 3 mps 723 mmHg 32%
11:00 +34°C° 0 mm 3 mps 723 mmHg 29%
12:00 +36°C° 0 mm 3 mps 723 mmHg 26%
13:00 +36°C° 0 mm 4 mps 723 mmHg 24%
14:00 +36°C° 0 mm 4 mps 722 mmHg 21%
15:00 +37°C° 0 mm 4 mps 722 mmHg 19%
16:00 +36°C° 0 mm 4 mps 722 mmHg 19%
17:00 +36°C° 0 mm 4 mps 722 mmHg 19%
18:00 +35°C° 0 mm 4 mps 722 mmHg 20%
19:00 +31°C° 0 mm 3 mps 722 mmHg 25%
20:00 +28°C° 0 mm 2 mps 722 mmHg 31%
21:00 +25°C° 0 mm 2 mps 722 mmHg 37%
22:00 +24°C° 0 mm 2 mps 722 mmHg 39%
23:00 +23°C° 0 mm 2 mps 722 mmHg 41%

27 Junio, Domingo

Tiempo Temperatura Precipitaciones Viento Presión Humedad
00:00 +23°C° 0 mm 2 mps 722 mmHg 42%
01:00 +21°C° 0 mm 2 mps 722 mmHg 42%
02:00 +22°C° 0 mm 1 mps 722 mmHg 42%
03:00 +21°C° 0 mm 1 mps 722 mmHg 42%
04:00 +21°C° 0 mm 1 mps 722 mmHg 42%
05:00 +21°C° 0 mm 1 mps 722 mmHg 41%
06:00 +21°C° 0 mm 1 mps 722 mmHg 40%
07:00 +24°C° 0 mm 1 mps 723 mmHg 34%
08:00 +27°C° 0 mm 1 mps 723 mmHg 28%
09:00 +30°C° 0 mm 1 mps 723 mmHg 22%
10:00 +31°C° 0 mm 2 mps 723 mmHg 20%
11:00 +34°C° 0 mm 2 mps 723 mmHg 17%
12:00 +35°C° 0 mm 3 mps 723 mmHg 14%
13:00 +36°C° 0 mm 3 mps 723 mmHg 13%
14:00 +36°C° 0 mm 3 mps 723 mmHg 12%
15:00 +37°C° 0 mm 3 mps 722 mmHg 12%
16:00 +36°C° 0 mm 3 mps 722 mmHg 13%
17:00 +36°C° 0 mm 3 mps 722 mmHg 14%
18:00 +35°C° 0 mm 2 mps 722 mmHg 15%
19:00 +31°C° 0 mm 2 mps 722 mmHg 19%
20:00 +28°C° 0 mm 2 mps 722 mmHg 23%
21:00 +25°C° 0 mm 2 mps 723 mmHg 27%
22:00 +24°C° 0 mm 2 mps 723 mmHg 31%
23:00 +24°C° 0 mm 2 mps 723 mmHg 34%

28 Junio, Lunes

Tiempo Temperatura Precipitaciones Viento Presión Humedad
00:00 +23°C° 0 mm 2 mps 723 mmHg 37%
01:00 +21°C° 0 mm 2 mps 723 mmHg 39%
02:00 +21°C° 0 mm 2 mps 723 mmHg 41%
03:00 +20°C° 0 mm 2 mps 722 mmHg 43%
04:00 +20°C° 0 mm 2 mps 723 mmHg 43%
05:00 +22°C° 0 mm 1 mps 723 mmHg 43%
06:00 +22°C° 0 mm 1 mps 723 mmHg 44%
07:00 +25°C° 0 mm 1 mps 723 mmHg 37%
08:00 +28°C° 0 mm 1 mps 723 mmHg 31%
09:00 +31°C° 0 mm 1 mps 724 mmHg 25%
10:00 +32°C° 0 mm 1 mps 724 mmHg 21%
11:00 +35°C° 0 mm 2 mps 724 mmHg 17%
12:00 +37°C° 0 mm 3 mps 724 mmHg 13%
13:00 +37°C° 0 mm 3 mps 723 mmHg 12%
14:00 +38°C° 0 mm 3 mps 723 mmHg 12%
15:00 +38°C° 0 mm 3 mps 723 mmHg 11%
16:00 +38°C° 0 mm 3 mps 722 mmHg 12%
17:00 +37°C° 0 mm 3 mps 722 mmHg 13%
18:00 +36°C° 0 mm 2 mps 722 mmHg 14%
19:00 +32°C° 0 mm 2 mps 722 mmHg 18%
20:00 +29°C° 0 mm 2 mps 722 mmHg 23%
21:00 +26°C° 0 mm 2 mps 722 mmHg 27%
22:00 +26°C° 0 mm 2 mps 722 mmHg 29%
23:00 +25°C° 0 mm 2 mps 722 mmHg 32%
Mostrar más

Necesitamos Su Consentimiento

Meteoprog y nuestros Proveedores de Servicios pueden almacenar y acceder a sus datos personales como cookies, identificadores de dispositivo u otras tecnologías similares de su dispositivo y procesar dichos datos para personalizar contenido y anuncios, además de ofrecer funciones de redes sociales y analizar el tráfico.

  • Almacenar y/o acceder a información en su dispositivo

    Se puede almacenar o acceder a cookies, identificadores de dispositivo u otra información de su dispositivo para los fines anteriormente indicados.

  • Anuncios y contenido personalizados, medición de anuncios y contenido, percepciones del público, y desarrollo de productos

    Los anuncios y el contenido pueden personalizarse en base a su perfil. Se pueden añadir más datos para personalizar mejor los anuncios y contenidos. Se puede medir el rendimiento de los anuncios y contenidos. Se puede obtener la percepción sobre el público que ha visto los anuncios y contenidos. Dichos datos pueden usarse para desarrollar o mejorar la experiencia del usuario, sistemas y software.

Al hacer clic en ‘Estoy De Acuerdo’ usted permitirá el uso de las cookies, identificadores de dispositivo, balizas web u otras tecnologías similares indicadas. Su configuración puede cambiarse desde el navegador de su dispositivo.

Para ciertos fines, los intereses legítimos pueden ser considerados por encima del consentimiento. Puede leer más sobre ello en nuestra Política de Privacidad y Cookies.